Location: Home
(42.5358°N, 72.7383°W)
Time: 20:03:04
(UTC-05:00)

Explorer 7 - Pass Details

Date: 29 November 2021
Orbit: 483 x 674 km, 50.3° (Epoch: 23 January)

Event Time Altitude Azimuth Distance (km) Brightness Sun altitude
Rises 11:24:12 0° 300° (WNW) 2,614 10.0 25.8°
Reaches altitude 10° 11:26:35 10° 310° (NW) 1,705 9.0 25.8°
Maximum altitude 11:30:06 33° 16° (NNE) 835 7.5 25.8°
Drops below altitude 10° 11:33:32 10° 83° (E) 1,663 9.3 25.9°
Sets 11:35:49 0° 93° (E) 2,540 10.3 25.9°
